DW8235 Weather Reports


Display with metric or nautical units.
time (UTC)temp
F
wind
direction
speed
MPH
gust
MPH
rain 1hr
in
rain 24hr
in
rain mn
in
humidity
%
barometer
mb
20260504081535 55 198 0.0 0.0 0.00 0.00 0.00 90 1018.3
20260504044556 58 198 0.0 0.0 0.00 0.00 0.00 82 1019.8
20260504043059 58 198 0.0 0.0 0.00 0.00 0.00 81 1019.9
20260504041554 59 198 0.0 0.0 0.00 0.00 0.00 80 1019.9
20260504040054 59 198 0.0 0.0 0.00 0.00 0.00 80 1019.8
20260504034554 60 198 0.0 0.0 0.00 0.00 0.00 78 1019.9
20260504033059 60 198 0.0 0.0 0.00 0.00 0.00 77 1019.8
20260504031554 61 198 0.0 0.0 0.00 0.00 0.00 75 1019.9
20260504030053 61 198 0.0 0.0 0.00 0.00 0.00 75 1019.8
20260504024554 62 198 0.0 0.0 0.00 0.00 0.00 72 1019.6
20260504023052 62 198 0.0 0.0 0.00 0.00 0.00 71 1019.6
20260504021552 63 198 0.0 0.0 0.00 0.00 0.00 68 1019.5
20260504020127 64 198 0.0 0.0 0.00 0.00 0.00 67 1019.3
20260504014602 65 198 0.0 0.0 0.00 0.00 0.00 66 1019.2
20260504013105 66 198 0.0 0.0 0.00 0.00 0.00 63 1019.0
20260504011550 67 198 0.0 0.0 0.00 0.00 0.00 58 1018.8
20260504010049 68 198 0.0 0.0 0.00 0.00 0.00 56 1018.9
20260504004619 69 198 0.0 0.0 0.00 0.00 0.00 55 1018.8
20260504003053 70 198 0.0 0.0 0.00 0.00 0.00 53 1018.7
20260504001617 70 198 0.0 1.0 0.00 0.00 0.00 51 1018.6
20260504000051 71 198 0.0 1.0 0.00 0.00 0.00 50 1018.6
20260503234546 72 198 0.0 1.0 0.00 0.00 0.00 49 1018.6
20260503233046 72 198 0.0 0.0 0.00 0.00 0.00 47 1018.8
20260503231545 72 198 0.0 0.0 0.00 0.00 0.00 47 1018.7
20260503230106 73 198 0.0 1.0 0.00 0.00 0.00 46 1018.8
20260503224543 73 198 0.0 1.0 0.00 0.00 0.00 46 1018.9
20260503223043 73 199 0.0 4.0 0.00 0.00 0.00 45 1018.9
20260503221540 73 195 0.0 5.0 0.00 0.00 0.00 44 1019.0
20260503220045 74 165 0.0 6.0 0.00 0.00 0.00 43 1019.2
20260503214538 74 170 1.0 4.0 0.00 0.00 0.00 42 1019.3
20260503213037 74 162 1.0 7.0 0.00 0.00 0.00 44 1019.5
20260503211535 74 165 0.0 3.0 0.00 0.00 0.00 43 1019.7
20260503210033 74 169 5.0 10.0 0.00 0.00 0.00 43 1019.8
20260503204533 74 176 1.0 5.0 0.00 0.00 0.00 42 1020.0
20260503203046 75 159 3.0 9.0 0.00 0.00 0.00 41 1020.2
20260503201534 75 135 4.0 11.0 0.00 0.00 0.00 42 1020.4
20260503200031 77 173 0.0 6.0 0.00 0.00 0.00 41 1020.6
20260503194539 76 157 0.0 8.0 0.00 0.00 0.00 39 1020.9
20260503193034 76 114 1.0 3.0 0.00 0.00 0.00 38 1021.0
20260503191531 77 351 0.0 4.0 0.00 0.00 0.00 37 1021.3
20260503190038 77 9 0.0 7.0 0.00 0.00 0.00 37 1021.5
20260503184528 77 71 0.0 5.0 0.00 0.00 0.00 37 1021.7
20260503183026 76 123 0.0 5.0 0.00 0.00 0.00 35 1021.8
20260503181525 76 331 1.0 9.0 0.00 0.00 0.00 38 1021.9
20260503180028 76 338 0.0 4.0 0.00 0.00 0.00 38 1022.1
20260503174524 75 306 0.0 5.0 0.00 0.00 0.00 38 1022.3
20260503173024 75 312 1.0 6.0 0.00 0.00 0.00 39 1022.7
20260503171522 76 319 0.0 3.0 0.00 0.00 0.00 37 1022.9